Location: Bannatyne
(13.0833°N, 59.5333°W)
Time: 05:22:15
(UTC+00:00)

Envisat - Pass Details

Date: 18 June 2021
Orbit: 764 x 766 km, 98.2° (Epoch: 03 August)

Event Time Altitude Azimuth Distance (km) Brightness Sun altitude
Rises 08:48:56 0° 18° (NNE) 3,221 7.0 -10.4°
Reaches altitude 10° 08:51:16 10° 22° (NNE) 2,294 6.3 -9.9°
Maximum altitude 08:56:14 58° 101° (ESE) 888 3.7 -8.8°
Drops below altitude 10° 09:01:12 10° 180° (S) 2,292 5.2 -7.7°
Sets 09:03:31 0° 184° (S) 3,217 5.9 -7.2°
